STARLINK-35549, 66139

Orbit data source: Space-Track

STARLINK-35549, 66139 is a payload satellite owned by SpaceX/Seattle (US) in LEO that was launched on Wed, 22 Oct 2025 UTC via an FALCON 9 launch vehicle from the Air Force Western Test Range (AFWTR). Payload-class satellites include a variety of spacecraft equipped with specific instruments for various scientific and technological missions. These include communications satellites like Starlink; space stations such as the ISS; scientific satellites like the Hubble; Earth observation satellites from companies like Planet Labs, Umbra, and HawkEye 360; GPS; miniature CubeSats for education and research; and military/defense satellites.

Loading next visibility...
Identifier
66139, 2025-237AB
Orbit
LEO
Country
Flag of USUS
Related business
Manufacturer
SpaceX/Seattle
Mission
Operational Commercial Communications
Bus & Motor
STARLINK V2MO, Unknown motor
Mass
575 kg wet, ~530 kg dry
Launch date (UTC)
2025-10-22 (8 months ago)
Launch vehicle
FALCON 9
Launch site
Air Force Western Test Range (AFWTR)
Object type
Payload
Rocket body
Debris
Shape & HBR
Box + 2 Pan, 17.7 m
Radar Cross Section
36.964 m², Large (>1 m²)

Expand to show TLE details & history
Last TLE update: 1 day ago

TLE from 1 day ago
0 STARLINK-35549
1 66139U 25237AB  26170.71126298  .00023768  00000-0  81185-3 0  9998
2 66139  53.1605 285.5163 0001052  68.0382 292.0731 15.30207880 38236
Epoch: 2026-06-19T17:04Z
TLE epoch observation values (Epoch: 2026-06-19T17:04:13.121Z)
Latitude
0.00002°
Longitude
121.52532°
Altitude
475.82 km
Speed
7.629 km/s
True Right ascension
19h 02m 03s
True Declination
0° 00' 00"
Sunlit
Object was in full shadow at epoch
Visualization orbit readout
Latitude
Unknown
Longitude
Unknown
Altitude
Unknown
Speed
Unknown
Apparent Right ascension
Unknown
Apparent Declination
Unknown
Sunlit
N/A
Visualization observer readout
Local Sidereal Time
10:20:28
Azimuth
Unknown
Elevation
Unknown
Doppler factor
Unknown
Orbital elements
Apogee altitude
476.169 km
Perigee altitude
474.727 km
Semi-major axis
6,853.585 km
Eccentricity
0.00011
Inclination
53.1605°
RAAN
285.5163°
Arg. of periapsis
68.0382°
True anomaly
292.06193°
Mean anomaly
292.0731°
Eccentric anomaly
292.06751°
Mean motion
3.82531 °/min
Orbital period
94.11 mins
BSTAR
0.00081185
Loading maneuver chart data...
Computing Atmospheric mass density...
Loading historical data...
Loading historical data...
Loading historical data...
Loading historical data...
Loading historical data...
Loading historical data...
Loading historical data...

Documentation

Showing up to 5 results
|